Weather History for Devils Lake, ND

Change the Weather History Date:

Monday, September 23, 2013

  Actual Average Record
Temperature  
Mean Temperature 66 °F -  
Max Temperature 75 °F 64 °F 88 °F (1958)
Min Temperature 57 °F 39 °F 22 °F (1989)
Cooling Degree Days 1    
Growing Degree Days 16 (Base 50)    
Moisture  
Dew Point 53 °F    
Average Humidity 62    
Maximum Humidity 82    
Minimum Humidity 47    
Precipitation  
Precipitation 0.00 in - - ()
Sea Level Pressure  
Sea Level Pressure 29.58 in    
Wind  
Wind Speed 18 mph (South)    
Max Wind Speed 23 mph    
Max Gust Speed 31 mph    
Visibility 10 miles    
Events      
Averages and records for this station are not official NWS values.
T = Trace of Precipitation, MM = Missing Value Source: NWS Daily Summary

Daily Weather History Graph

Daily Weather History Graph

Search for Another Location

Airport:

Trip Planner

Search our weather history database for the weather conditions in past years. The results will help you decide how hot, cold, wet, or windy it might be!

Date:

Astronomy

Sep. 23, 2013 Rise Set
Actual Time 7:24 AM CDT 7:30 PM CDT
Civil Twilight 6:53 AM CDT 8:01 PM CDT
Nautical Twilight 6:16 AM CDT 8:38 PM CDT
Astronomical Twilight 5:38 AM CDT 9:15 PM CDT
Moon 9:42 PM CDT (9/23) 12:06 PM CDT (9/23)
Length of Visible Light 13h 08m
Length of Day
12h 06m
Waning Gibbous, 81% of the Moon is Illuminated
Sep 23
Waning Gibbous
Sep 26
Last Quarter
Oct 4
New
Oct 11
First Quarter
Oct 18
Full

Hourly Weather History & Observations

Time (CDT) Temp. Dew Point Humidity Pressure Visibility Wind Dir Wind Speed Gust Speed Precip Events Conditions
12:15 AM 71.6 °F 55.4 °F 57% 29.49 in 10.0 mi South 20.7 mph 26.5 mph N/A   Clear
12:35 AM 71.6 °F 53.6 °F 53% 29.49 in 10.0 mi South 21.9 mph 31.1 mph N/A   Clear
12:55 AM 71.6 °F 53.6 °F 53% 29.48 in 10.0 mi South 23.0 mph 27.6 mph N/A   Clear
1:15 AM 71.6 °F 53.6 °F 53% 29.49 in 10.0 mi South 23.0 mph 29.9 mph N/A   Clear
1:35 AM 69.8 °F 53.6 °F 56% 29.49 in 10.0 mi South 23.0 mph 28.8 mph N/A   Clear
1:55 AM 69.8 °F 53.6 °F 56% 29.50 in 10.0 mi South 21.9 mph 27.6 mph N/A   Clear
2:15 AM 69.8 °F 53.6 °F 56% 29.49 in 10.0 mi SSE 19.6 mph 27.6 mph N/A   Clear
2:35 AM 68.0 °F 53.6 °F 60% 29.49 in 10.0 mi SSE 17.3 mph 26.5 mph N/A   Clear
2:55 AM 66.2 °F 53.6 °F 64% 29.49 in 10.0 mi SSE 18.4 mph - N/A   Clear
3:15 AM 66.2 °F 53.6 °F 64% 29.49 in 10.0 mi SSE 19.6 mph - N/A   Clear
3:35 AM 66.2 °F 53.6 °F 64% 29.49 in 10.0 mi SSE 15.0 mph - N/A   Clear
3:55 AM 66.2 °F 51.8 °F 60% 29.49 in 10.0 mi SSE 15.0 mph - N/A   Clear
4:15 AM 64.4 °F 51.8 °F 64% 29.50 in 10.0 mi SSE 16.1 mph - N/A   Clear
4:35 AM 64.4 °F 51.8 °F 64% 29.50 in 10.0 mi SSE 15.0 mph - N/A   Clear
4:55 AM 64.4 °F 51.8 °F 64% 29.52 in 10.0 mi SSE 15.0 mph - N/A   Clear
5:15 AM 64.4 °F 51.8 °F 64% 29.52 in 10.0 mi SSE 16.1 mph - N/A   Clear
5:35 AM 64.4 °F 51.8 °F 64% 29.51 in 10.0 mi SSE 13.8 mph - N/A   Clear
5:55 AM 64.4 °F 51.8 °F 64% 29.52 in 10.0 mi SSE 15.0 mph 21.9 mph N/A   Clear
6:15 AM 64.4 °F 51.8 °F 64% 29.53 in 10.0 mi SSE 13.8 mph - N/A   Clear
6:35 AM 62.6 °F 51.8 °F 68% 29.52 in 10.0 mi SSE 15.0 mph - N/A   Clear
6:55 AM 62.6 °F 51.8 °F 68% 29.52 in 10.0 mi SSE 17.3 mph 23.0 mph N/A   Clear
7:15 AM 62.6 °F 51.8 °F 68% 29.53 in 10.0 mi South 17.3 mph 21.9 mph N/A   Partly Cloudy
7:35 AM 64.4 °F 50.0 °F 59% 29.53 in 10.0 mi South 17.3 mph 24.2 mph N/A   Clear
7:55 AM 64.4 °F 50.0 °F 59% 29.53 in 10.0 mi SSE 18.4 mph 23.0 mph N/A   Clear
8:15 AM 64.4 °F 51.8 °F 64% 29.53 in 10.0 mi SSE 19.6 mph 23.0 mph N/A   Clear
8:35 AM 64.4 °F 51.8 °F 64% 29.53 in 10.0 mi SSE 15.0 mph 24.2 mph N/A   Clear
8:55 AM 64.4 °F 51.8 °F 64% 29.53 in 10.0 mi SE 13.8 mph - N/A   Clear
9:15 AM 64.4 °F 51.8 °F 64% 29.54 in 10.0 mi SSE 16.1 mph 20.7 mph N/A   Clear
9:35 AM 64.4 °F 51.8 °F 64% 29.54 in 10.0 mi South 18.4 mph 24.2 mph N/A   Clear
9:55 AM 66.2 °F 51.8 °F 60% 29.55 in 10.0 mi South 15.0 mph - N/A   Clear
10:15 AM 66.2 °F 51.8 °F 60% 29.55 in 10.0 mi South 15.0 mph 21.9 mph N/A   Clear
10:35 AM 66.2 °F 51.8 °F 60% 29.54 in 10.0 mi SSE 17.3 mph - N/A   Clear
10:55 AM 68.0 °F 53.6 °F 60% 29.54 in 10.0 mi South 15.0 mph 19.6 mph N/A   Clear
11:15 AM 68.0 °F 53.6 °F 60% 29.54 in 10.0 mi South 17.3 mph 21.9 mph N/A   Clear
11:35 AM 69.8 °F 53.6 °F 56% 29.55 in 10.0 mi South 18.4 mph - N/A   Clear
11:55 AM 71.6 °F 53.6 °F 53% 29.55 in 10.0 mi South 23.0 mph 27.6 mph N/A   Clear
12:15 PM 71.6 °F 53.6 °F 53% 29.55 in 10.0 mi South 17.3 mph 23.0 mph N/A   Clear
12:35 PM 71.6 °F 53.6 °F 53% 29.55 in 10.0 mi South 18.4 mph 25.3 mph N/A   Clear
12:55 PM 73.4 °F 53.6 °F 50% 29.56 in 10.0 mi SSE 17.3 mph - N/A   Clear
1:15 PM 73.4 °F 53.6 °F 50% 29.55 in 10.0 mi South 18.4 mph 26.5 mph N/A   Clear
1:35 PM 73.4 °F 53.6 °F 50% 29.56 in 10.0 mi South 20.7 mph 26.5 mph N/A   Clear
1:55 PM 73.4 °F 53.6 °F 50% 29.56 in 10.0 mi South 18.4 mph 23.0 mph N/A   Clear
2:15 PM 73.4 °F 53.6 °F 50% 29.55 in 10.0 mi SSE 20.7 mph - N/A   Clear
2:35 PM 73.4 °F 53.6 °F 50% 29.55 in 10.0 mi South 19.6 mph 24.2 mph N/A   Clear
2:55 PM 75.2 °F 53.6 °F 47% 29.56 in 10.0 mi South 19.6 mph 24.2 mph N/A   Partly Cloudy
3:15 PM 75.2 °F 53.6 °F 47% 29.56 in 10.0 mi South 20.7 mph 26.5 mph N/A   Clear
3:35 PM 75.2 °F 53.6 °F 47% 29.56 in 10.0 mi South 18.4 mph 27.6 mph N/A   Clear
3:55 PM 75.2 °F 53.6 °F 47% 29.56 in 10.0 mi South 18.4 mph 28.8 mph N/A   Clear
4:15 PM 75.2 °F 53.6 °F 47% 29.56 in 10.0 mi South 17.3 mph 23.0 mph N/A   Clear
4:35 PM 73.4 °F 53.6 °F 50% 29.57 in 10.0 mi South 16.1 mph 24.2 mph N/A   Clear
4:55 PM 73.4 °F 55.4 °F 53% 29.58 in 10.0 mi SW 16.1 mph - N/A   Clear
5:15 PM 71.6 °F 55.4 °F 57% 29.58 in 10.0 mi SW 15.0 mph - N/A   Clear
5:35 PM 73.4 °F 55.4 °F 53% 29.59 in 10.0 mi SW 13.8 mph 19.6 mph N/A   Clear
5:55 PM 71.6 °F 55.4 °F 57% 29.60 in 10.0 mi SW 13.8 mph - N/A   Clear
6:15 PM 71.6 °F 55.4 °F 57% 29.60 in 10.0 mi SSW 11.5 mph - N/A   Mostly Cloudy
6:35 PM 66.2 °F 57.2 °F 73% 29.62 in 10.0 mi West 20.7 mph 24.2 mph N/A   Overcast
6:55 PM 64.4 °F 55.4 °F 73% 29.64 in 10.0 mi West 15.0 mph - N/A   Overcast
7:15 PM 62.6 °F 55.4 °F 77% 29.65 in 10.0 mi West 19.6 mph 23.0 mph N/A   Overcast
7:35 PM 62.6 °F 55.4 °F 77% 29.67 in 10.0 mi West 15.0 mph - N/A   Overcast
7:55 PM 60.8 °F 53.6 °F 77% 29.68 in 10.0 mi West 10.4 mph - N/A   Overcast
8:15 PM 60.8 °F 53.6 °F 77% 29.68 in 10.0 mi WNW 12.7 mph - N/A   Overcast
8:35 PM 60.8 °F 53.6 °F 77% 29.70 in 10.0 mi WNW 20.7 mph - N/A   Overcast
8:55 PM 60.8 °F 53.6 °F 77% 29.70 in 10.0 mi WNW 13.8 mph - N/A   Mostly Cloudy
9:15 PM 59.0 °F 51.8 °F 77% 29.71 in 10.0 mi WNW 11.5 mph - N/A   Overcast
9:35 PM 59.0 °F 51.8 °F 77% 29.72 in 10.0 mi NW 15.0 mph 18.4 mph N/A   Overcast
9:55 PM 59.0 °F 51.8 °F 77% 29.75 in 10.0 mi West 15.0 mph - N/A   Overcast
10:15 PM 59.0 °F 51.8 °F 77% 29.75 in 10.0 mi WNW 13.8 mph - N/A   Overcast
10:35 PM 59.0 °F 51.8 °F 77% 29.75 in 10.0 mi WNW 12.7 mph - N/A   Overcast
10:55 PM 59.0 °F 51.8 °F 77% 29.75 in 10.0 mi WNW 10.4 mph - N/A   Overcast
11:15 PM 57.2 °F 51.8 °F 82% 29.76 in 10.0 mi WNW 10.4 mph - N/A   Overcast
11:35 PM 57.2 °F 51.8 °F 82% 29.76 in 10.0 mi WNW 8.1 mph - N/A   Overcast
11:55 PM 57.2 °F 51.8 °F 82% 29.78 in 10.0 mi West 6.9 mph - N/A   Overcast